period_start,C,m1,H,J0,J1,J2,J3,J4,J5,JA,JB,JC,JD,JJ,JK,JN,#
2015-06-04 00:01:20,0.09,0.87,0.00,24.89,28.35,30.87,4.69,25.89,1016.02,2032.00,3164.96,3037.82,3308.38,349.67,344.98,17.49,0000 0000 0000 0000 000000
2015-06-04 00:06:22,0.08,0.87,0.00,24.91,28.37,30.88,4.79,25.77,1015.96,2032.00,3164.02,3037.00,3307.65,350.43,345.80,17.52,0000 0000 0000 0000 000000
2015-06-04 00:11:23,0.10,0.88,0.00,24.93,28.37,30.89,4.73,25.81,1015.90,2032.00,3162.95,3036.13,3306.69,349.90,345.22,17.55,0000 0000 0000 0000 000000
2015-06-04 00:16:24,0.12,0.88,0.00,24.95,28.38,30.90,4.78,25.82,1015.87,2032.00,3161.72,3035.23,3305.63,350.19,345.35,17.58,0000 0000 0000 0000 000000
2015-06-04 00:21:25,0.11,0.88,0.00,24.97,28.40,30.91,4.74,25.79,1015.77,2032.00,3160.47,3034.14,3304.52,349.61,344.44,17.61,0000 0000 0000 0000 000000
2015-06-04 00:26:26,0.10,0.89,0.00,24.99,28.40,30.92,4.70,25.74,1015.69,2032.00,3159.42,3033.27,3303.63,350.38,345.31,17.64,0000 0000 0000 0000 000000
2015-06-04 00:31:28,0.13,0.89,0.00,25.01,28.42,30.93,4.70,25.82,1015.68,2032.00,3157.87,3032.21,3302.46,349.74,344.79,17.67,0000 0000 0000 0000 000000
2015-06-04 00:36:29,0.11,0.89,0.00,25.02,28.42,30.93,4.76,25.78,1015.82,2032.00,3156.49,3031.08,3301.32,349.79,344.83,17.70,0000 0000 0000 0000 000000
2015-06-04 00:41:30,0.10,0.90,0.00,25.04,28.43,30.95,4.76,25.85,1015.83,2031.99,3155.42,3030.17,3300.36,350.34,345.36,17.73,0000 0000 0000 0000 000000
2015-06-04 00:46:31,0.10,0.90,0.00,25.07,28.45,30.96,4.71,25.90,1015.90,2031.99,3154.31,3029.22,3299.24,349.75,344.89,17.76,0000 0000 0000 0000 000000
2015-06-04 00:51:32,0.01,0.90,0.00,25.08,28.46,30.97,4.70,25.96,1015.96,2031.98,3153.98,3028.93,3298.88,349.63,344.67,17.79,0000 0000 0000 0000 000000
2015-06-04 00:56:33,0.07,0.90,0.00,25.10,28.47,30.98,4.73,25.99,1016.00,2031.96,3153.48,3028.24,3298.14,349.66,344.70,17.81,0000 0000 0000 0000 000000
2015-06-04 01:01:35,0.01,0.90,0.00,25.12,28.48,31.00,4.71,25.88,1016.04,2031.95,3153.01,3028.00,3297.98,349.98,345.00,17.84,0000 0000 0000 0000 000000
2015-06-04 01:06:36,0.01,0.90,0.00,25.13,28.50,31.01,4.73,25.93,1016.08,2031.90,3152.95,3027.97,3297.76,349.97,344.98,17.87,0000 0000 0000 0000 000000
2015-06-04 01:11:37,0.07,0.91,0.00,25.15,28.50,31.01,4.75,25.79,1016.03,2031.85,3152.31,3027.42,3297.13,350.10,345.12,17.90,0000 0000 0000 0000 000000
2015-06-04 01:16:38,0.03,0.91,0.00,25.17,28.52,31.03,4.71,25.77,1015.75,2031.72,3151.73,3026.84,3296.58,350.38,345.36,17.93,0000 0000 0000 0000 000000
2015-06-04 01:21:40,0.09,0.91,0.00,25.20,28.53,31.04,4.69,25.77,1015.69,2031.50,3150.69,3025.80,3295.63,349.89,344.81,17.96,0000 0000 0000 0000 000000
2015-06-04 01:26:41,0.07,0.91,0.00,25.21,28.55,31.05,4.65,25.93,1015.66,2031.37,3149.67,3024.87,3294.24,349.59,344.38,17.99,0000 0000 0000 0000 000000
2015-06-04 01:31:42,0.04,0.91,0.00,25.23,28.56,31.07,4.69,25.84,1015.68,2031.20,3148.99,3024.07,3293.56,349.80,344.50,18.02,0000 0000 0000 0000 000000
2015-06-04 01:36:44,0.08,0.91,0.00,25.25,28.57,31.09,4.70,25.85,1015.67,2031.13,3148.16,3023.36,3292.88,349.82,344.52,18.05,0000 0000 0000 0000 000000
2015-06-04 01:41:45,0.08,0.92,0.00,25.27,28.58,31.11,4.70,25.74,1015.66,2031.07,3147.39,3022.54,3291.90,349.98,344.67,18.08,0000 0000 0000 0000 000000
2015-06-04 01:46:46,0.12,0.92,0.00,25.29,28.60,31.12,4.72,25.84,1015.67,2031.02,3146.30,3021.48,3290.68,350.37,345.09,18.11,0000 0000 0000 0000 000000
2015-06-04 01:51:47,0.11,0.92,0.00,25.31,28.61,31.13,4.66,25.93,1015.65,2031.01,3145.20,3020.33,3289.47,350.15,344.66,18.14,0000 0000 0000 0000 000000
2015-06-04 01:56:49,0.07,0.92,0.00,25.33,28.62,31.15,4.70,25.96,1015.64,2031.00,3144.54,3019.67,3288.73,349.73,344.38,18.17,0000 0000 0000 0000 000000
2015-06-04 02:01:50,0.13,0.93,0.00,25.35,28.64,31.17,4.68,25.92,1015.64,2031.00,3143.35,3018.46,3287.48,349.97,344.52,18.19,0000 0000 0000 0000 000000
2015-06-04 02:06:51,0.10,0.93,0.00,25.35,28.65,31.18,4.79,25.91,1015.64,2031.00,3142.45,3017.52,3286.40,350.21,344.70,18.22,0000 0000 0000 0000 000000
2015-06-04 02:11:52,0.09,0.93,0.00,25.37,28.67,31.19,4.72,25.95,1015.64,2031.00,3141.61,3016.69,3285.44,349.78,344.31,18.25,0000 0000 0000 0000 000000
2015-06-04 02:16:53,0.08,0.94,0.00,25.39,28.68,31.21,4.74,25.87,1015.64,2030.98,3140.74,3015.78,3284.58,350.12,344.81,18.28,0000 0000 0000 0000 000000
2015-06-04 02:21:54,0.14,0.94,0.00,25.40,28.70,31.22,4.71,25.92,1015.64,2030.98,3139.55,3014.52,3283.05,349.88,344.28,18.31,0000 0000 0000 0000 000000
2015-06-04 02:26:55,0.18,0.95,0.00,25.41,28.71,31.23,4.71,25.85,1015.64,2030.97,3137.91,3012.74,3281.20,350.48,345.01,18.34,0000 0000 0000 0000 000000
2015-06-04 02:31:56,0.22,0.95,0.00,25.42,28.72,31.25,4.72,25.85,1015.64,2030.90,3135.88,3010.62,3278.86,350.17,344.69,18.37,0000 0000 0000 0000 000000
2015-06-04 02:36:57,0.07,0.96,0.00,25.43,28.74,31.26,4.75,25.79,1015.64,2030.85,3134.97,3009.44,3277.61,350.14,344.63,18.40,0000 0000 0000 0000 000000
2015-06-04 02:41:58,0.03,0.96,0.00,25.45,28.75,31.28,4.76,25.88,1015.64,2030.71,3134.21,3008.87,3276.92,350.65,345.32,18.43,0000 0000 0000 0000 000000
2015-06-04 02:47:00,0.05,0.96,0.00,25.47,28.76,31.30,4.71,25.88,1015.64,2030.34,3133.34,3007.89,3275.84,350.33,344.57,18.46,0000 0000 0000 0000 000000
2015-06-04 02:52:01,0.11,0.96,0.00,25.47,28.77,31.31,4.73,25.87,1015.65,2030.04,3132.01,3006.61,3274.36,350.12,344.55,18.49,0000 0000 0000 0000 000000
2015-06-04 02:57:02,0.15,0.97,0.00,25.48,28.80,31.32,4.75,25.93,1015.66,2030.02,3130.69,3005.28,3272.80,350.01,344.48,18.52,0000 0000 0000 0000 000000
2015-06-04 03:02:04,0.10,0.97,0.00,25.50,28.80,31.33,4.75,25.89,1015.68,2030.01,3129.55,3004.07,3271.70,349.35,343.97,18.55,0000 0000 0000 0000 000000
2015-06-04 03:07:05,0.04,0.97,0.00,25.50,28.82,31.34,4.68,25.86,1015.66,2030.01,3129.01,3003.73,3271.01,349.85,344.22,18.58,0000 0000 0000 0000 000000
2015-06-04 03:12:06,0.07,0.97,0.00,25.52,28.83,31.35,4.77,25.75,1015.66,2030.00,3128.51,3003.01,3270.41,350.27,344.64,18.60,0000 0000 0000 0000 000000
2015-06-04 03:17:08,0.06,0.98,0.00,25.53,28.85,31.37,4.68,25.82,1015.68,2030.00,3127.94,3002.25,3269.76,349.46,343.73,18.63,0000 0000 0000 0000 000000
2015-06-04 03:22:08,0.13,0.98,0.00,25.55,28.85,31.38,4.67,25.93,1015.67,2030.00,3126.77,3001.40,3268.53,349.69,344.15,18.66,0000 0000 0000 0000 000000
2015-06-04 03:27:10,0.07,0.98,0.00,25.55,28.87,31.39,4.68,26.01,1015.75,2030.00,3125.98,3000.61,3267.70,349.70,344.12,18.69,0000 0000 0000 0000 000000
2015-06-04 03:32:11,0.04,0.98,0.00,25.55,28.88,31.41,4.64,25.95,1015.72,2029.99,3125.26,3000.01,3267.02,349.85,344.22,18.72,0000 0000 0000 0000 000000
2015-06-04 03:37:12,0.09,0.98,0.00,25.56,28.90,31.42,4.72,25.97,1015.67,2029.98,3124.68,2999.44,3266.35,349.62,344.10,18.75,0000 0000 0000 0000 000000
2015-06-04 03:42:14,0.09,0.99,0.00,25.57,28.90,31.43,4.73,26.08,1015.68,2029.98,3123.95,2998.34,3265.15,350.01,344.26,18.78,0000 0000 0000 0000 000000
2015-06-04 03:47:15,0.10,0.99,0.00,25.57,28.92,31.45,4.71,25.92,1015.75,2029.98,3123.06,2997.48,3264.35,349.69,344.18,18.81,0000 0000 0000 0000 000000
2015-06-04 03:52:16,0.08,0.99,0.00,25.57,28.92,31.46,4.70,25.92,1015.88,2029.95,3122.16,2996.70,3263.42,349.97,344.30,18.84,0000 0000 0000 0000 000000
2015-06-04 03:57:18,0.01,0.99,0.00,25.58,28.95,31.48,4.70,25.92,1015.98,2029.81,3121.63,2996.01,3262.98,349.89,344.25,18.87,0000 0000 0000 0000 000000
2015-06-04 04:02:19,0.04,1.00,0.00,25.60,28.95,31.48,4.75,25.85,1016.04,2029.87,3121.09,2995.99,3262.86,349.65,344.13,18.90,0000 0000 0000 0000 000000
2015-06-04 04:07:20,0.03,1.00,0.00,25.60,28.96,31.49,4.70,25.91,1016.07,2029.88,3121.00,2995.70,3262.12,350.02,344.57,18.93,0000 0000 0000 0000 000000
2015-06-04 04:12:22,0.06,1.00,0.00,25.60,28.97,31.49,4.69,25.88,1016.09,2029.58,3120.33,2994.67,3261.44,349.94,344.31,18.96,0000 0000 0000 0000 000000
2015-06-04 04:17:23,0.04,1.00,0.00,25.62,28.98,31.50,4.75,25.88,1016.04,2029.39,3119.33,2994.00,3260.22,350.24,344.69,18.99,0000 0000 0000 0000 000000
2015-06-04 04:22:24,0.01,1.00,0.00,25.62,29.00,31.51,4.74,25.77,1016.11,2029.13,3118.94,2993.21,3259.89,349.57,344.14,19.02,0000 0000 0000 0000 000000
2015-06-04 04:27:25,0.04,1.00,0.00,25.62,29.00,31.52,4.72,25.78,1016.12,2029.09,3118.24,2992.99,3259.21,349.81,344.29,19.04,0000 0000 0000 0000 000000
2015-06-04 04:32:27,0.07,1.00,0.00,25.63,29.01,31.53,4.72,25.82,1016.12,2029.10,3117.77,2992.22,3258.64,350.10,344.73,19.07,0000 0000 0000 0000 000000
2015-06-04 04:37:28,0.08,1.01,0.00,25.64,29.02,31.54,4.72,25.85,1016.13,2029.06,3116.98,2991.27,3257.74,349.85,344.27,19.10,0000 0000 0000 0000 000000
2015-06-04 04:42:29,0.07,1.01,0.00,25.65,29.02,31.55,4.75,25.78,1016.13,2029.04,3116.19,2990.70,3256.86,350.41,344.71,19.13,0000 0000 0000 0000 000000
2015-06-04 04:47:31,0.06,1.01,0.00,25.65,29.05,31.56,4.73,25.77,1016.13,2029.01,3115.56,2990.00,3256.04,350.20,344.67,19.16,0000 0000 0000 0000 000000
2015-06-04 04:52:32,0.05,1.01,0.00,25.65,29.05,31.57,4.74,25.86,1016.13,2029.01,3115.02,2989.58,3255.74,349.90,344.32,19.19,0000 0000 0000 0000 000000
2015-06-04 04:57:33,0.10,1.01,0.00,25.65,29.05,31.58,4.81,25.89,1016.13,2029.00,3114.42,2988.68,3254.72,350.40,344.88,19.22,0000 0000 0000 0000 000000
2015-06-04 05:02:34,0.11,1.02,0.00,25.67,29.07,31.59,4.65,25.82,1016.13,2029.00,3113.35,2987.67,3253.59,349.21,343.64,19.25,0000 0000 0000 0000 000000
2015-06-04 05:07:35,0.12,1.02,0.00,25.67,29.07,31.60,4.72,25.87,1016.13,2029.00,3112.21,2986.40,3252.19,350.10,344.56,19.28,0000 0000 0000 0000 000000
2015-06-04 05:12:37,0.17,1.03,0.00,25.67,29.08,31.60,4.70,25.77,1016.13,2029.00,3110.97,2985.09,3250.72,349.78,344.31,19.31,0000 0000 0000 0000 000000
2015-06-04 05:17:37,0.13,1.03,0.00,25.69,29.10,31.61,4.72,25.77,1016.13,2029.00,3109.49,2983.64,3249.08,350.23,344.38,19.34,0000 0000 0000 0000 000000
2015-06-04 05:22:39,0.14,1.03,0.00,25.70,29.10,31.63,4.65,25.77,1016.13,2029.00,3108.33,2982.37,3247.68,350.05,344.30,19.37,0000 0000 0000 0000 000000
2015-06-04 05:27:40,0.21,1.04,0.00,25.71,29.10,31.63,4.72,25.82,1016.13,2028.99,3106.42,2980.58,3245.83,349.89,344.26,19.40,0000 0000 0000 0000 000000
2015-06-04 05:32:41,0.24,1.05,0.00,25.72,29.12,31.64,4.70,25.81,1016.13,2028.99,3103.71,2978.39,3243.42,349.50,343.90,19.43,0000 0000 0000 0000 000000
2015-06-04 05:37:43,0.27,1.05,0.00,25.71,29.12,31.64,4.74,25.77,1016.14,2028.99,3101.10,2976.26,3241.16,350.42,344.79,19.45,0000 0000 0000 0000 000000
2015-06-04 05:42:44,0.20,1.06,0.00,25.72,29.13,31.65,4.80,25.85,1016.13,2028.97,3098.43,2974.08,3238.79,350.55,344.72,19.48,0000 0000 0000 0000 000000
2015-06-04 05:47:45,0.17,1.07,0.00,25.73,29.15,31.66,4.75,25.83,1016.13,2028.98,3096.76,2972.69,3237.37,350.18,344.39,19.51,0000 0000 0000 0000 000000
2015-06-04 05:52:47,0.19,1.07,0.00,25.75,29.15,31.67,4.68,25.78,1016.13,2028.98,3094.67,2971.05,3235.53,349.72,344.03,19.54,0000 0000 0000 0000 000000
2015-06-04 05:57:48,0.26,1.08,0.00,25.76,29.15,31.67,4.69,25.87,1016.13,2028.96,3091.96,2968.99,3233.33,349.81,344.29,19.57,0000 0000 0000 0000 000000
2015-06-04 06:02:49,0.27,1.09,0.00,25.77,29.17,31.69,4.74,25.81,1016.14,2028.91,3089.05,2966.70,3230.93,349.89,344.05,19.60,0000 0000 0000 0000 000000
2015-06-04 06:07:51,0.22,1.09,0.00,25.77,29.17,31.68,4.66,25.84,1016.15,2028.88,3086.52,2964.56,3228.58,349.44,343.69,19.63,0000 0000 0000 0000 000000
2015-06-04 06:12:52,0.27,1.10,0.00,25.78,29.17,31.69,4.74,25.81,1016.19,2028.79,3084.03,2962.18,3226.05,349.69,343.96,19.66,0000 0000 0000 0000 000000
2015-06-04 06:17:53,0.32,1.11,0.00,25.79,29.19,31.70,4.77,25.80,1016.26,2028.70,3080.47,2959.24,3222.91,349.73,344.13,19.69,0000 0000 0000 0000 000000
2015-06-04 06:22:55,0.45,1.12,0.00,25.80,29.20,31.70,4.67,25.77,1016.25,2028.45,3075.71,2955.30,3218.65,349.70,343.97,19.72,0000 0000 0000 0000 000000
2015-06-04 06:27:56,0.33,1.13,0.00,25.82,29.20,31.71,4.73,25.81,1016.26,2028.31,3071.84,2952.17,3215.30,349.93,344.30,19.75,0000 0000 0000 0000 000000
2015-06-04 06:32:58,0.18,1.14,0.00,25.82,29.21,31.71,4.76,25.89,1016.23,2028.14,3069.32,2950.06,3213.07,349.93,344.15,19.78,0000 0000 0000 0000 000000
2015-06-04 06:37:59,0.23,1.15,0.00,25.84,29.22,31.72,4.67,25.77,1016.43,2028.09,3066.84,2948.01,3210.90,349.59,343.84,19.81,0000 0000 0000 0000 000000
2015-06-04 06:43:00,0.15,1.15,0.00,25.85,29.22,31.72,4.65,25.79,1016.46,2028.10,3065.13,2946.30,3209.03,349.82,344.17,19.84,0000 0000 0000 0000 000000
2015-06-04 06:48:02,0.09,1.16,0.00,25.87,29.24,31.74,4.70,25.75,1016.45,2028.05,3064.12,2945.34,3208.03,350.46,344.74,19.86,0000 0000 0000 0000 000000
2015-06-04 06:53:03,0.11,1.16,0.00,25.88,29.25,31.74,4.75,25.80,1016.51,2028.01,3063.22,2944.31,3206.91,349.85,344.29,19.89,0000 0000 0000 0000 000000
2015-06-04 06:58:05,0.12,1.16,0.00,25.90,29.25,31.75,4.70,25.87,1016.55,2028.02,3062.07,2943.30,3205.51,350.14,344.43,19.92,0000 0000 0000 0000 000000
2015-06-04 07:03:06,0.07,1.17,0.00,25.92,29.26,31.77,4.65,25.77,1016.59,2028.01,3061.21,2942.63,3204.82,349.59,343.87,19.95,0000 0000 0000 0000 000000
2015-06-04 07:08:07,0.09,1.17,0.00,25.94,29.27,31.78,4.61,25.78,1016.61,2028.00,3060.57,2941.74,3203.82,349.65,343.92,19.98,0000 0000 0000 0000 000000
2015-06-04 07:13:08,0.08,1.17,0.00,25.96,29.28,31.80,4.81,25.81,1016.56,2028.00,3059.67,2940.92,3202.92,350.89,344.71,20.01,0000 0000 0000 0000 000000
2015-06-04 07:18:09,0.13,1.17,0.00,25.97,29.30,31.79,4.68,25.73,1016.57,2028.00,3058.27,2939.89,3201.84,349.61,343.83,20.04,0000 0000 0000 0000 000000
2015-06-04 07:23:11,0.20,1.18,0.00,26.01,29.30,31.79,4.70,25.80,1016.61,2028.00,3055.75,2938.41,3200.22,349.91,344.05,20.07,0000 0000 0000 0000 000000
2015-06-04 07:28:12,0.24,1.19,0.00,26.03,29.31,31.79,4.75,25.78,1016.62,2028.00,3052.58,2936.92,3198.66,350.27,344.33,20.10,0000 0000 0000 0000 000000
2015-06-04 07:33:13,0.23,1.19,0.00,26.06,29.32,31.80,4.74,25.84,1016.62,2028.00,3048.78,2935.30,3196.87,350.11,344.23,20.13,0000 0000 0000 0000 000000
2015-06-04 07:38:15,0.11,1.20,0.00,26.09,29.32,31.81,4.70,25.80,1016.62,2027.99,3046.38,2934.06,3195.86,349.85,343.95,20.16,0000 0000 0000 0000 000000
2015-06-04 07:43:16,0.03,1.20,0.00,26.11,29.35,31.82,4.75,25.82,1016.62,2027.99,3045.99,2933.87,3195.11,350.38,344.50,20.19,0000 0000 0000 0000 000000
2015-06-04 07:48:17,0.05,1.20,0.00,26.12,29.35,31.82,4.69,25.87,1016.62,2027.96,3045.58,2933.23,3195.00,350.24,344.04,20.22,0000 0000 0000 0000 000000
2015-06-04 07:53:18,0.02,1.20,0.00,26.15,29.37,31.84,4.68,25.87,1016.62,2027.97,3045.04,2933.01,3194.74,349.91,343.90,20.25,0000 0000 0000 0000 000000
2015-06-04 07:58:19,0.04,1.20,0.00,26.16,29.37,31.85,4.76,25.98,1016.62,2027.78,3044.22,2932.55,3194.02,350.17,344.32,20.27,0000 0000 0000 0000 000000
2015-06-04 08:03:20,0.00,1.21,0.00,26.19,29.39,31.85,4.64,25.74,1016.62,2027.70,3044.00,2932.08,3193.94,350.01,344.00,20.30,0000 0000 0000 0000 000000
2015-06-04 08:08:21,-0.01,1.20,0.00,26.23,29.40,31.87,4.72,25.77,1016.62,2027.31,3043.49,2932.00,3193.36,350.21,344.32,20.33,0000 0000 0000 0000 000000
2015-06-04 08:13:23,-0.02,1.20,0.00,26.26,29.42,31.88,4.76,25.80,1016.62,2027.11,3043.03,2932.00,3193.02,350.63,344.62,20.36,0000 0000 0000 0000 000000
2015-06-04 08:18:24,-0.01,1.20,0.00,26.29,29.43,31.90,4.65,25.89,1016.63,2027.05,3043.00,2931.93,3193.00,349.75,343.76,20.39,0000 0000 0000 0000 000000
2015-06-04 08:23:25,0.02,1.20,0.00,26.30,29.45,31.91,4.73,25.78,1016.64,2027.01,3042.98,2931.43,3192.98,350.37,344.15,20.42,0000 0000 0000 0000 000000
2015-06-04 08:28:26,0.05,1.21,0.00,26.32,29.46,31.93,4.70,25.88,1016.63,2027.00,3042.48,2931.08,3192.65,349.52,343.19,20.45,0000 0000 0000 0000 000000
2015-06-04 08:33:28,0.01,1.21,0.00,26.33,29.48,31.96,4.70,25.76,1016.63,2027.00,3042.01,2931.00,3192.10,350.26,343.97,20.48,0000 0000 0000 0000 000000
2015-06-04 08:38:29,0.00,1.21,0.00,26.35,29.50,32.00,4.73,25.76,1016.62,2027.00,3041.98,2930.98,3192.01,350.32,343.98,20.51,0000 0000 0000 0000 000000
2015-06-04 08:43:30,0.04,1.21,0.00,26.37,29.51,32.03,4.72,25.78,1016.63,2027.00,3041.64,2930.57,3191.93,349.83,343.61,20.54,0000 0000 0000 0000 000000
2015-06-04 08:48:32,0.05,1.21,0.00,26.39,29.52,32.04,4.71,25.72,1016.66,2027.00,3041.04,2930.03,3191.19,349.95,343.63,20.57,0000 0000 0000 0000 000000
2015-06-04 08:53:33,0.00,1.21,0.00,26.40,29.55,32.06,4.71,25.72,1016.77,2026.99,3040.97,2929.97,3191.00,350.03,343.88,20.60,0000 0000 0000 0000 000000
2015-06-04 08:58:35,0.08,1.21,0.00,26.42,29.56,32.08,4.66,25.79,1016.89,2026.98,3040.34,2929.42,3190.52,350.04,343.85,20.63,0000 0000 0000 0000 000000
2015-06-04 09:03:36,0.02,1.21,0.00,26.44,29.57,32.09,4.79,25.77,1016.99,2026.97,3039.90,2928.91,3189.89,351.04,344.92,20.66,0000 0000 0000 0000 000000
2015-06-04 09:08:37,0.15,1.22,0.00,26.46,29.60,32.11,4.66,25.76,1016.97,2026.95,3038.68,2927.87,3188.70,349.98,343.73,20.69,0000 0000 0000 0000 000000
2015-06-04 09:13:38,0.05,1.22,0.00,26.47,29.61,32.13,4.67,25.79,1016.97,2026.86,3037.64,2926.99,3187.76,349.88,343.62,20.71,0000 0000 0000 0000 000000
2015-06-04 09:18:39,0.05,1.22,0.00,26.49,29.62,32.13,4.70,25.78,1016.94,2026.71,3037.02,2926.23,3187.03,349.88,343.64,20.74,0000 0000 0000 0000 000000
2015-06-04 09:23:41,0.00,1.22,0.00,26.50,29.64,32.15,4.71,25.81,1017.00,2026.52,3036.62,2925.98,3186.73,350.19,344.05,20.77,0000 0000 0000 0000 000000
2015-06-04 09:28:42,0.11,1.22,0.00,26.53,29.66,32.17,4.76,25.84,1017.05,2026.21,3035.20,2924.94,3185.59,350.63,344.25,20.80,0000 0000 0000 0000 000000
2015-06-04 09:33:43,0.22,1.23,0.00,26.55,29.67,32.19,4.72,25.82,1017.07,2026.06,3032.26,2923.17,3183.67,350.07,343.69,20.83,0000 0000 0000 0000 000000
2015-06-04 09:38:44,0.19,1.23,0.00,26.56,29.70,32.23,4.70,25.81,1017.10,2026.03,3029.88,2921.50,3181.79,349.83,343.56,20.86,0000 0000 0000 0000 000000
2015-06-04 09:43:46,0.10,1.24,0.00,26.59,29.71,32.25,4.80,25.85,1017.10,2026.00,3028.50,2920.48,3180.82,350.12,343.72,20.89,0000 0000 0000 0000 000000
2015-06-04 09:48:47,0.03,1.24,0.00,26.62,29.72,32.27,4.72,25.86,1017.10,2026.00,3027.98,2920.01,3180.12,350.07,343.42,20.92,0000 0000 0000 0000 000000
2015-06-04 09:53:48,0.10,1.24,0.00,26.63,29.75,32.28,4.73,25.82,1017.10,2026.00,3027.17,2919.30,3179.49,350.28,343.88,20.95,0000 0000 0000 0000 000000
2015-06-04 09:58:49,0.10,1.24,0.00,26.66,29.76,32.29,4.71,25.82,1017.10,2026.00,3026.35,2918.47,3178.52,350.04,343.65,20.98,0000 0000 0000 0000 000000
2015-06-04 10:03:50,0.03,1.25,0.00,26.67,29.77,32.31,4.70,25.65,1017.11,2025.99,3025.77,2917.95,3177.90,349.93,343.58,21.01,0000 0000 0000 0000 000000
2015-06-04 10:08:52,0.09,1.25,0.00,26.69,29.80,32.31,4.69,25.72,1017.12,2025.99,3024.94,2917.17,3177.05,350.01,343.59,21.04,0000 0000 0000 0000 000000
2015-06-04 10:13:53,0.11,1.25,0.00,26.73,29.82,32.32,4.76,25.79,1017.20,2025.95,3023.92,2916.16,3175.98,350.13,343.47,21.07,0000 0000 0000 0000 000000
2015-06-04 10:18:54,0.29,1.26,0.00,26.75,29.84,32.32,4.67,25.74,1017.33,2025.88,3021.26,2913.96,3173.59,350.27,343.85,21.10,0000 0000 0000 0000 000000
2015-06-04 10:23:56,0.32,1.27,0.00,26.76,29.86,32.32,4.70,25.75,1017.43,2025.56,3017.21,2910.94,3170.36,350.10,343.74,21.12,0000 0000 0000 0000 000000
2015-06-04 10:28:57,0.35,1.28,0.00,26.78,29.88,32.32,4.70,25.78,1017.53,2025.23,3012.95,2907.68,3166.91,349.86,343.34,21.15,0000 0000 0000 0000 000000
2015-06-04 10:33:58,0.46,1.29,0.00,26.81,29.91,32.33,4.75,25.76,1017.57,2025.06,3008.35,2903.71,3162.79,350.31,343.86,21.18,0000 0000 0000 0000 000000
2015-06-04 10:38:59,0.63,1.31,0.00,26.82,29.93,32.35,4.77,25.79,1017.59,2025.00,3002.42,2898.42,3157.27,350.27,343.84,21.21,0000 0000 0000 0000 000000
2015-06-04 10:44:01,0.53,1.32,0.00,26.86,29.96,32.35,4.69,25.76,1017.59,2025.00,2997.32,2893.76,3152.39,349.95,343.54,21.24,0000 0000 0000 0000 000000
2015-06-04 10:49:02,0.28,1.34,0.00,26.88,29.98,32.38,4.61,25.77,1017.55,2025.00,2994.07,2890.71,3149.18,349.61,343.22,21.27,0000 0000 0000 0000 000000
2015-06-04 10:54:03,0.22,1.34,0.00,26.91,30.00,32.39,4.77,25.88,1017.48,2024.99,2992.03,2888.79,3147.10,350.31,343.66,21.30,0000 0000 0000 0000 000000
2015-06-04 10:59:05,0.23,1.35,0.00,26.94,30.03,32.42,4.67,25.88,1017.52,2024.96,2990.02,2886.83,3145.04,349.49,342.94,21.33,0000 0000 0000 0000 000000
2015-06-04 11:04:06,0.22,1.36,0.00,26.96,30.05,32.44,4.75,25.80,1017.58,2024.94,2987.94,2884.78,3142.81,350.19,343.61,21.36,0000 0000 0000 0000 000000
2015-06-04 11:09:07,0.05,1.36,0.00,26.98,30.08,32.48,4.68,25.85,1017.59,2024.66,2986.57,2883.51,3141.47,349.68,343.31,21.39,0000 0000 0000 0000 000000
2015-06-04 11:14:08,0.05,1.36,0.00,27.01,30.10,32.51,4.67,25.68,1017.59,2024.16,2985.49,2882.57,3140.42,350.01,343.69,21.42,0000 0000 0000 0000 000000
2015-06-04 11:19:09,0.09,1.36,0.00,27.02,30.12,32.53,4.75,25.69,1017.60,2024.05,2984.51,2881.63,3139.41,350.54,343.91,21.45,0000 0000 0000 0000 000000
2015-06-04 11:24:11,0.12,1.37,0.00,27.04,30.15,32.57,4.75,25.74,1017.59,2024.01,2983.19,2880.55,3138.18,350.27,343.58,21.48,0000 0000 0000 0000 000000
2015-06-04 11:29:12,0.15,1.37,0.00,27.05,30.17,32.60,4.75,25.80,1017.60,2024.00,2981.61,2879.33,3136.85,350.37,343.63,21.51,0000 0000 0000 0000 000000
2015-06-04 11:34:13,0.11,1.38,0.00,27.05,30.19,32.64,4.71,25.78,1017.60,2024.00,2980.46,2878.45,3135.73,350.41,343.65,21.53,0000 0000 0000 0000 000000
2015-06-04 11:39:15,0.12,1.38,0.00,27.05,30.21,32.67,4.64,25.75,1017.62,2024.00,2979.07,2877.34,3134.73,350.06,343.41,21.56,0000 0000 0000 0000 000000
2015-06-04 11:44:16,0.10,1.38,0.00,27.05,30.22,32.71,4.76,25.70,1017.67,2023.99,2978.02,2876.32,3133.77,349.88,343.34,21.59,0000 0000 0000 0000 000000
2015-06-04 11:49:17,0.04,1.39,0.00,27.05,30.25,32.76,4.66,25.68,1017.74,2023.98,2977.20,2875.98,3133.04,349.71,342.78,21.62,0000 0000 0000 0000 000000
2015-06-04 11:54:18,0.06,1.39,0.00,27.04,30.26,32.78,4.73,25.71,1017.66,2023.95,2976.89,2875.25,3132.61,349.78,343.31,21.65,0000 0000 0000 0000 000000
2015-06-04 11:59:20,-0.01,1.39,0.00,27.02,30.27,32.81,4.71,25.82,1017.65,2023.71,2976.12,2874.99,3132.02,349.99,343.37,21.68,0000 0000 0000 0000 000000
2015-06-04 12:04:21,0.06,1.39,0.00,27.00,30.28,32.83,4.64,25.75,1017.81,2023.71,2975.93,2874.43,3131.64,349.75,343.15,21.71,0000 0000 0000 0000 000000
2015-06-04 12:09:22,0.07,1.39,0.00,26.97,30.30,32.85,4.76,25.73,1017.99,2023.42,2974.96,2873.62,3130.66,350.16,343.81,21.74,0000 0000 0000 0000 000000
2015-06-04 12:14:24,0.11,1.39,0.00,26.95,30.30,32.89,4.76,25.70,1017.96,2023.21,2973.63,2872.40,3129.36,349.74,343.46,21.77,0000 0000 0000 0000 000000
2015-06-04 12:19:25,0.18,1.40,0.00,26.92,30.30,32.92,4.76,25.72,1017.94,2023.14,2971.92,2870.92,3127.72,350.29,343.87,21.80,0000 0000 0000 0000 000000
2015-06-04 12:24:26,1.18,1.41,0.00,26.91,30.32,32.93,4.66,25.75,1017.92,2023.09,2963.41,2864.35,3120.91,349.69,343.35,21.83,0000 0000 0000 0000 000000
2015-06-04 12:29:28,1.99,1.47,0.00,26.88,30.32,32.93,4.69,25.76,1017.90,2023.01,2943.35,2848.61,3104.51,349.69,343.15,21.86,0000 0000 0000 0000 000000
2015-06-04 12:34:29,1.54,1.52,0.00,26.86,30.32,32.94,4.71,25.73,1017.86,2023.00,2925.84,2835.37,3090.65,349.99,343.46,21.89,0000 0000 0000 0000 000000
2015-06-04 12:39:30,0.51,1.55,0.00,26.85,30.32,32.93,4.74,25.83,1017.84,2023.00,2918.17,2829.83,3084.85,350.20,343.84,21.92,0000 0000 0000 0000 000000
2015-06-04 12:44:31,0.07,1.55,0.00,26.84,30.32,32.93,4.72,25.76,1017.71,2023.00,2916.52,2828.84,3083.75,349.92,343.48,21.94,0000 0000 0000 0000 000000
2015-06-04 12:49:33,0.06,1.56,0.00,26.83,30.32,32.95,4.73,25.92,1017.67,2023.00,2916.01,2828.07,3083.03,350.39,343.76,21.97,0000 0000 0000 0000 000000
2015-06-04 12:54:34,0.00,1.56,0.00,26.82,30.32,32.93,4.67,25.97,1017.71,2023.00,2915.88,2828.00,3082.94,349.65,343.28,22.00,0000 0000 0000 0000 000000
2015-06-04 12:59:35,0.08,1.56,0.67,26.81,30.32,32.94,4.69,25.97,1017.64,2023.00,2915.19,2827.69,3082.35,349.93,343.61,22.03,0000 0000 0000 0000 000000